When you browse on this site, cookies collect data to enhance your experience and personalize the content and advertising you see.
Visit our Privacy Policy to learn more. By continuing to use the site, you agree to this use of cookies and data.
  • In Portugal
  • List of Countries
  • For 7 days
  • Water Temperature
  • Weather Map
  • Weather Widgets
  • user-avatar
    Login

    Hourly Weather Llucmajor

    Today, 17 November, Sunday

    Time Temperature Precipitation Wind Pressure Humidity
    00:00 +8°C° 0 mm 9 mps 744 mmHg 63%
    01:00 +8°C° 0 mm 9 mps 743 mmHg 62%
    02:00 +10°C° 0 mm 9 mps 743 mmHg 62%
    03:00 +10°C° 0 mm 9 mps 743 mmHg 62%
    04:00 +9°C° 0 mm 8 mps 743 mmHg 63%
    05:00 +9°C° 0 mm 7 mps 743 mmHg 65%
    06:00 +9°C° 0 mm 6 mps 743 mmHg 66%
    07:00 +10°C° 0 mm 7 mps 744 mmHg 62%
    08:00 +11°C° 0 mm 7 mps 744 mmHg 58%
    09:00 +12°C° 0 mm 8 mps 744 mmHg 55%
    10:00 +12°C° 0 mm 7 mps 744 mmHg 54%
    11:00 +12°C° 0 mm 7 mps 744 mmHg 53%
    12:00 +14°C° 0 mm 7 mps 744 mmHg 53%
    13:00 +14°C° 0 mm 7 mps 744 mmHg 56%
    14:00 +12°C° 0 mm 7 mps 743 mmHg 58%
    15:00 +12°C° 0 mm 7 mps 743 mmHg 61%
    16:00 +11°C° 0 mm 7 mps 743 mmHg 62%
    17:00 +11°C° 0 mm 7 mps 743 mmHg 64%
    18:00 +11°C° 0 mm 6 mps 743 mmHg 66%
    19:00 +11°C° 0.2 mm 6 mps 743 mmHg 70%
    20:00 +11°C° 0.2 mm 6 mps 743 mmHg 74%
    21:00 +11°C° 0.2 mm 6 mps 742 mmHg 79%
    22:00 +11°C° 0.5 mm 6 mps 742 mmHg 79%
    23:00 +11°C° 0.5 mm 6 mps 742 mmHg 79%

    Tomorrow, 18 November, Monday

    Time Temperature Precipitation Wind Pressure Humidity
    00:00 +11°C° 0.5 mm 6 mps 741 mmHg 79%
    01:00 +10°C° 0.1 mm 6 mps 741 mmHg 79%
    02:00 +10°C° 0.1 mm 5 mps 741 mmHg 80%
    03:00 +9°C° 0.1 mm 5 mps 741 mmHg 80%
    04:00 +9°C° 0 mm 5 mps 741 mmHg 81%
    05:00 +9°C° 0 mm 5 mps 741 mmHg 81%
    06:00 +8°C° 0 mm 5 mps 742 mmHg 82%
    07:00 +9°C° 0 mm 5 mps 742 mmHg 78%
    08:00 +11°C° 0 mm 4 mps 743 mmHg 74%
    09:00 +12°C° 0 mm 4 mps 744 mmHg 70%
    10:00 +12°C° 0.1 mm 4 mps 744 mmHg 70%
    11:00 +12°C° 0.1 mm 5 mps 744 mmHg 71%
    12:00 +12°C° 0.1 mm 5 mps 744 mmHg 71%
    13:00 +12°C° 0.1 mm 5 mps 744 mmHg 70%
    14:00 +12°C° 0.1 mm 5 mps 744 mmHg 70%
    15:00 +12°C° 0.1 mm 5 mps 744 mmHg 69%
    16:00 +10°C° 0 mm 5 mps 745 mmHg 69%
    17:00 +10°C° 0 mm 5 mps 745 mmHg 69%
    18:00 +10°C° 0 mm 4 mps 746 mmHg 69%
    19:00 +10°C° 0 mm 4 mps 746 mmHg 70%
    20:00 +8°C° 0 mm 4 mps 746 mmHg 71%
    21:00 +9°C° 0 mm 3 mps 747 mmHg 72%
    22:00 +9°C° 0 mm 3 mps 747 mmHg 72%
    23:00 +9°C° 0 mm 2 mps 747 mmHg 73%

    Day after tomorrow, 19 November, Tuesday

    Time Temperature Precipitation Wind Pressure Humidity
    00:00 +10°C° 0 mm 1 mps 747 mmHg 74%
    01:00 +10°C° 0 mm 1 mps 747 mmHg 73%
    02:00 +10°C° 0 mm 1 mps 747 mmHg 73%
    03:00 +10°C° 0 mm 1 mps 747 mmHg 73%
    04:00 +10°C° 0 mm 1 mps 747 mmHg 73%
    05:00 +10°C° 0 mm 1 mps 747 mmHg 72%
    06:00 +9°C° 0 mm 2 mps 748 mmHg 72%
    07:00 +10°C° 0.1 mm 2 mps 748 mmHg 69%
    08:00 +12°C° 0.1 mm 2 mps 749 mmHg 67%
    09:00 +13°C° 0.1 mm 2 mps 749 mmHg 64%
    10:00 +13°C° 0 mm 3 mps 749 mmHg 61%
    11:00 +13°C° 0 mm 4 mps 749 mmHg 57%
    12:00 +14°C° 0 mm 5 mps 749 mmHg 53%
    13:00 +14°C° 0 mm 4 mps 748 mmHg 53%
    14:00 +14°C° 0 mm 4 mps 748 mmHg 53%
    15:00 +14°C° 0 mm 3 mps 748 mmHg 54%
    16:00 +13°C° 0 mm 3 mps 748 mmHg 57%
    17:00 +13°C° 0 mm 2 mps 748 mmHg 61%
    18:00 +12°C° 0 mm 2 mps 748 mmHg 64%
    19:00 +12°C° 0 mm 2 mps 748 mmHg 65%
    20:00 +12°C° 0 mm 2 mps 748 mmHg 65%
    21:00 +12°C° 0 mm 2 mps 749 mmHg 65%
    22:00 +10°C° 0 mm 2 mps 748 mmHg 66%
    23:00 +10°C° 0 mm 2 mps 748 mmHg 67%

    20 November, Wednesday

    Time Temperature Precipitation Wind Pressure Humidity
    00:00 +10°C° 0 mm 2 mps 748 mmHg 68%
    01:00 +9°C° 0 mm 2 mps 747 mmHg 68%
    02:00 +9°C° 0 mm 2 mps 747 mmHg 69%
    03:00 +10°C° 0 mm 1 mps 747 mmHg 70%
    04:00 +9°C° 0 mm 2 mps 746 mmHg 71%
    05:00 +10°C° 0 mm 2 mps 746 mmHg 73%
    06:00 +10°C° 0 mm 2 mps 746 mmHg 74%
    07:00 +11°C° 0 mm 3 mps 746 mmHg 72%
    08:00 +12°C° 0 mm 4 mps 746 mmHg 70%
    09:00 +13°C° 0 mm 4 mps 746 mmHg 68%
    10:00 +14°C° 0 mm 5 mps 746 mmHg 65%
    11:00 +14°C° 0 mm 5 mps 746 mmHg 63%
    12:00 +15°C° 0 mm 6 mps 745 mmHg 60%
    13:00 +15°C° 0 mm 6 mps 745 mmHg 62%
    14:00 +15°C° 0 mm 6 mps 745 mmHg 65%
    15:00 +15°C° 0 mm 6 mps 744 mmHg 67%
    16:00 +14°C° 0 mm 6 mps 744 mmHg 69%
    17:00 +13°C° 0 mm 5 mps 744 mmHg 70%
    18:00 +13°C° 0 mm 5 mps 744 mmHg 72%
    19:00 +13°C° 0 mm 5 mps 744 mmHg 73%
    20:00 +13°C° 0 mm 5 mps 744 mmHg 74%
    21:00 +13°C° 0 mm 5 mps 744 mmHg 76%
    22:00 +13°C° 0 mm 5 mps 743 mmHg 77%
    23:00 +13°C° 0 mm 5 mps 743 mmHg 78%

    21 November, Thursday

    Time Temperature Precipitation Wind Pressure Humidity
    00:00 +13°C° 0 mm 6 mps 743 mmHg 80%
    01:00 +13°C° 0.2 mm 6 mps 742 mmHg 81%
    02:00 +13°C° 0.2 mm 5 mps 742 mmHg 82%
    03:00 +13°C° 0.2 mm 5 mps 742 mmHg 83%
    04:00 +13°C° 0.3 mm 5 mps 742 mmHg 84%
    05:00 +13°C° 0.3 mm 6 mps 742 mmHg 84%
    06:00 +13°C° 0.3 mm 6 mps 742 mmHg 85%
    07:00 +14°C° 0.1 mm 6 mps 742 mmHg 81%
    08:00 +15°C° 0.1 mm 5 mps 742 mmHg 76%
    09:00 +16°C° 0.1 mm 5 mps 743 mmHg 72%
    10:00 +16°C° 0.1 mm 6 mps 743 mmHg 69%
    11:00 +16°C° 0.1 mm 6 mps 742 mmHg 66%
    12:00 +17°C° 0.1 mm 6 mps 742 mmHg 63%
    13:00 +17°C° 0.1 mm 6 mps 742 mmHg 65%
    14:00 +16°C° 0.1 mm 6 mps 742 mmHg 68%
    15:00 +16°C° 0.1 mm 7 mps 742 mmHg 71%
    16:00 +16°C° 0.7 mm 7 mps 742 mmHg 75%
    17:00 +15°C° 0.7 mm 7 mps 741 mmHg 78%
    18:00 +15°C° 0.7 mm 7 mps 741 mmHg 82%
    19:00 +15°C° 0.9 mm 7 mps 741 mmHg 82%
    20:00 +15°C° 0.9 mm 6 mps 741 mmHg 82%
    21:00 +15°C° 0.9 mm 6 mps 741 mmHg 83%
    22:00 +15°C° 0.5 mm 6 mps 741 mmHg 83%
    23:00 +15°C° 0.5 mm 5 mps 741 mmHg 83%

    22 November, Friday

    Time Temperature Precipitation Wind Pressure Humidity
    00:00 +14°C° 0.5 mm 5 mps 740 mmHg 83%
    01:00 +15°C° 0.2 mm 5 mps 739 mmHg 82%
    02:00 +15°C° 0.2 mm 6 mps 739 mmHg 80%
    03:00 +15°C° 0.2 mm 6 mps 738 mmHg 78%
    04:00 +15°C° 0.1 mm 6 mps 738 mmHg 79%
    05:00 +15°C° 0.1 mm 5 mps 738 mmHg 79%
    06:00 +15°C° 0.1 mm 5 mps 737 mmHg 80%
    07:00 +15°C° 0.2 mm 5 mps 737 mmHg 79%
    08:00 +15°C° 0.2 mm 5 mps 737 mmHg 78%
    09:00 +15°C° 0.2 mm 6 mps 737 mmHg 78%
    10:00 +15°C° 1 mm 7 mps 737 mmHg 79%
    11:00 +15°C° 1 mm 9 mps 737 mmHg 81%
    12:00 +14°C° 1 mm 10 mps 737 mmHg 83%
    13:00 +13°C° 1.6 mm 9 mps 737 mmHg 84%
    14:00 +13°C° 1.6 mm 8 mps 736 mmHg 86%
    15:00 +12°C° 1.6 mm 7 mps 736 mmHg 87%
    16:00 +11°C° 0.6 mm 6 mps 737 mmHg 86%
    17:00 +12°C° 0.6 mm 5 mps 737 mmHg 84%
    18:00 +11°C° 0.6 mm 4 mps 738 mmHg 83%
    19:00 +11°C° 0 mm 4 mps 738 mmHg 81%
    20:00 +11°C° 0 mm 4 mps 739 mmHg 79%
    21:00 +11°C° 0 mm 4 mps 740 mmHg 78%
    22:00 +11°C° 0 mm 4 mps 740 mmHg 75%
    23:00 +11°C° 0 mm 4 mps 740 mmHg 72%
    Show more